CZ-3A R/B, 43492

Orbit data source: Space-Track

CZ-3A R/B, 43492 is space debris in HEO originally from a launch on Tue, 05 Jun 2018 UTC launched from the Xichang Space Center, China (XSC). Debris objects in space refer to the collection of defunct objects orbiting the Earth. Examples of debris include non-operational satellites, rocket bodies, and fragments generated from explosions, collisions, or faulty payload assembly.

Loading next visibility...
Identifier
43492, 2018-050B
Orbit
HEO
Country
Flag of CNCN / PRC
Related business
Manufacturer
CALT
Mission
Spacecraft
Bus & Motor
CZ-3A STAGE 3, Unknown motor
Mass
~2,800 kg wet, ~2,800 kg dry
Launch date (UTC)
2018-06-05 (8 years ago)
Launch vehicle
Unknown
Launch site
Xichang Space Center, China (XSC)
Object type
Payload
Rocket body
Debris
Shape & HBR
Cyl + 1 Nozzle, 6.2 m
Radar Cross Section
32.704 m², Large (>1 m²)

Expand to show TLE details & history
Last TLE update: 3 days ago

TLE from 3 days ago
0 CZ-3A R/B
1 43492U 18050B   25353.03496793  .00005411  00000-0  24371-2 0  9995
2 43492  23.9832 147.5262 7257507 123.0911 327.1484  2.29830380 62022
Epoch: 2025-12-19T00:50Z
TLE epoch observation values (Epoch: 2025-12-19T00:50:21.229Z)
Latitude
-0.00017°
Longitude
47.03314°
Altitude
12,586.516 km
Speed
5.06 km/s
True Right ascension
09h 50m 00s
True Declination
0° 00' 01"
Sunlit
Object was in daylight at epoch
Visualization orbit readout
Latitude
Unknown
Longitude
Unknown
Altitude
Unknown
Speed
Unknown
Apparent Right ascension
Unknown
Apparent Declination
Unknown
Sunlit
N/A
Visualization observer readout
Local Sidereal Time
12:40:36
Azimuth
Unknown
Elevation
Unknown
Doppler factor
Unknown
Orbital elements
Apogee altitude
35,486.788 km
Perigee altitude
274.867 km
Semi-major axis
24,258.965 km
Eccentricity
0.72575
Inclination
23.9832°
RAAN
147.5262°
Arg. of periapsis
123.0911°
True anomaly
237.0534°
Mean anomaly
327.1484°
Eccentric anomaly
287.48786°
Mean motion
0.57443 °/min
Orbital period
626.71 mins
BSTAR
0.0024371
Loading maneuver chart data...
Computing Atmospheric mass density...
Loading historical data...
Loading historical data...
Loading historical data...
Loading historical data...
Loading historical data...
Loading historical data...
Loading historical data...
Other satellites on launch #50 in the year 2018 (2018-06-05 UTC)

Documentation

Showing up to 5 results
|